Showing default

WEINA 1B, 43279

Orbit data source: Space-Track

WEINA 1B, 43279 is a payload satellite owned by Weina (CN) in LEO that was launched on Tue, 10 Apr 2018 UTC via a CHANG ZHENG 4C launch vehicle from the Jiuquan Satellite Launch Center, China (JSC). Payload-class satellites include a variety of spacecraft equipped with specific instruments for various scientific and technological missions. These include communications satellites like Starlink; space stations such as the ISS; scientific satellites like the Hubble; Earth observation satellites from companies like Planet Labs, Umbra, and HawkEye 360; GPS; miniature CubeSats for education and research; and military/defense satellites.

Loading next visibility...
Identifier
43279, 2018-034E
Orbit
LEO
Country
Flag of CNCN / PRC
Related business
Manufacturer
SECM?
Mission
Operational Defense Technology
Bus & Motor
Unknown
Mass
~10 kg wet, ~10 kg dry
Launch date (UTC)
2018-04-10 (8 years ago)
Launch vehicle
CHANG ZHENG 4C
Launch site
Jiuquan Satellite Launch Center, China (JSC)
Object type
Payload
Rocket body
Debris
Shape & HBR
Box, 0.1 m
Radar Cross Section
0.035 m², Medium (>0.1 m² and < 1m²)

Expand to show TLE details & history
Last TLE update: 5 hours ago

TLE from 5 hours ago
0 WEINA 1B
1 43279U 18034E   26123.62981109  .00000035  00000-0  17025-3 0  9997
2 43279  63.3961 206.5043 0271240   7.6963 352.8099 13.45367828396216
Epoch: 2026-05-03T15:06Z
TLE epoch observation values (Epoch: 2026-05-03T15:06:55.678Z)
Latitude
0.00001°
Longitude
118.2417°
Altitude
890.232 km
Speed
7.506 km/s
True Right ascension
13h 46m 01s
True Declination
0° 00' 00"
Sunlit
Object was in full shadow at epoch
Visualization orbit readout
Latitude
Unknown
Longitude
Unknown
Altitude
Unknown
Speed
Unknown
Apparent Right ascension
Unknown
Apparent Declination
Unknown
Sunlit
N/A
Visualization observer readout
Local Sidereal Time
03:49:15
Azimuth
Unknown
Elevation
Unknown
Doppler factor
Unknown
Orbital elements
Apogee altitude
1,290.695 km
Perigee altitude
885.662 km
Semi-major axis
7,466.316 km
Eccentricity
0.02712
Inclination
63.3961°
RAAN
206.5043°
Arg. of periapsis
7.6963°
True anomaly
352.40736°
Mean anomaly
352.8099°
Eccentric anomaly
352.61001°
Mean motion
3.36421 °/min
Orbital period
107.01 mins
BSTAR
0.00017025
Loading maneuver chart data...
Computing Atmospheric mass density...
Loading historical data...
Loading historical data...
Loading historical data...
Loading historical data...
Loading historical data...
Loading historical data...
Loading historical data...

Documentation

Showing up to 5 results
|